STARLINK-32075, 60345

Orbit data source: Space-Track

STARLINK-32075, 60345 is a payload satellite owned by SpaceX/Seattle (US) in LEO that was launched on Fri, 02 Aug 2024 UTC via an FALCON 9 launch vehicle from the Air Force Eastern Test Range (AFETR). Payloads include a variety of satellites, spacecraft, and rockets equipped with specific instruments for various scientific and technological missions. These include communications satellites like Starlink; space stations such as the ISS; scientific satellites like the Hubble; Earth observation satellites from companies like Planet Labs, Umbra, and HawkEye 360; GPS; miniature CubeSats for education and research; and military/defense satellites.

Loading next visibility...
STARLINK-32075 details
Identifier
60345, 2024-136S
Orbit
LEO
Last TLE update10 hours ago
Origin
Flag of USSpaceX/Seattle (US)
ManufacturerSpaceX/Seattle
MissionOperational spacecraft
Bus & MotorSTARLINK V2M, Unknown motor
Mass730 kg wet, ~700 kg dry
Launch date (UTC)
2024-08-02 (5 months ago)
Launch vehicle
FALCON 9
Launch site
Air Force Eastern Test Range (AFETR)
Object type
Payload
Rocket body
Debris
Shape & HBRUnknown
Radar Cross SectionLarge (>1 m²)

Expand to show TLE details & history

TLE from 10 hours ago
0 STARLINK-32075
1 60345U 24136S   25014.87023176 -.00000220  00000-0  46926-5 0  9997
2 60345  53.1587 220.8785 0001191  99.7286 260.3849 15.30194899 25541
Epoch: 2025-01-14T20:53Z
Definitive object data (Epoch: 2025-01-14T20:53:08.024Z)
Latitude-0.00002°
Longitude153.02432°
Altitude476.266 km
Speed7.629 km/s
True Right ascension14h 43m 30s
True Declination0° 00' 00"
Sunlit
Object was in daylight at TLE epoch
Visualization TLE readout
Latitude5.82741°
Longitude-33.30307°
Altitude475.304 km
Speed7.63 km/s
Apparent Right ascension23h 43m 34s
Apparent Declination-23° 34' 26"
Sunlit
Object is in daylight
Visualization observer readout
Local Sidereal Time07:42:00
Azimuth268.837° W
Elevation-37.152°
Doppler factor1
Orbital elements
Apogee altitude476.303 km
Perigee altitude474.671 km
Semi-major axis6,853.624 km
Eccentricity0.0001191
Inclination53.1587°
RAAN220.8785°
Arg. of periapsis99.7286°
True anomaly260.37144°
Mean anomaly260.3849°
Eccentric anomaly260.37817°
Mean motion3.82528 °/min
BSTAR0.0000046926
Orbital period94.11 mins
Loading maneuver chart data...
Loading historical data...
Loading historical data...
Loading historical data...
Loading historical data...
Loading historical data...
Loading historical data...
Loading historical data...

STARLINK-32075 Visibility forecast

Observer location: undefined°, undefined

Span
Click to sort rows by Start time (UTC) header in descending order
Start Az.
Max El. time (UTC)
Max El. Az.
Max El.
End time (UTC)
End Az.
6 mins2025-01-15 15:51:31.610Z207.569° SW2025-01-15 15:54:31.610Z140.579° SSE36.387°2025-01-15 15:57:31.610Z63.361° ENE
4 mins2025-01-15 17:31:31.610Z302.251° NW2025-01-15 17:32:31.610Z327.907° NNW23.091°2025-01-15 17:35:31.610Z27.797° NE
5 mins2025-01-15 22:27:31.610Z332.455° NNW2025-01-15 22:29:31.610Z31.298° NE34.03°2025-01-15 22:32:31.610Z103.767° ESE
4 mins2025-01-16 00:05:31.610Z268.964° W2025-01-16 00:07:31.610Z224.344° SW20.859°2025-01-16 00:09:31.610Z184.976° SSW
|